User: anonymous   Login
Location: Brno
(49.2000°N, 16.6330°E)
Time: 02:15:12
(UTC+02:00)
Language:

Iridium 2 - Orbit

View from above orbital plane
View from above orbital plane
View from above satellite
View from above satellite

Ground track
Ground track

The orbit data is extracted from the following two-line orbital elements,

1 25527U 98066A   16269.52375310  .00002852  00000-0  14797-3 0  9998
2 25527  85.5347 188.3575 0009210 359.3474   0.7752 15.15669588977771
Epoch (UTC): 25 September 2016 12:34:12
Eccentricity: 0.0009210
inclination: 85.5347°
perigee height: 512 km
apogee height: 525 km
right ascension of ascending node: 188.3575°
argument of perigee: 359.3474°
revolutions per day: 15.15669588
mean anomaly at epoch: 0.7752°
orbit number at epoch: 97777

The dashed part of the orbit path shows where the satellite is in the earth's shadow,  

DLR